• In Belarus
  • List of Countries
  • For 7 days
  • Water Temperature
  • Satellite Maps
  • Weather Map
  • Weather Widgets
  • user-avatar
    Login

    Hourly Weather Ventspils

    Today, 14 December, Friday

    Time Temperature Precipitation Wind Pressure Humidity
    00:00 -1°C° 0.1 mm 5 mps 772 mmHg 79%
    01:00 -2°C° 0 mm 5 mps 772 mmHg 78%
    02:00 -2°C° 0 mm 5 mps 772 mmHg 78%
    03:00 -2°C° 0 mm 5 mps 772 mmHg 79%
    04:00 -2°C° 0 mm 5 mps 772 mmHg 80%
    05:00 -2°C° 0 mm 5 mps 772 mmHg 80%
    06:00 -2°C° 0 mm 5 mps 772 mmHg 81%
    07:00 -2°C° 0 mm 5 mps 772 mmHg 82%
    08:00 -2°C° 0 mm 4 mps 773 mmHg 81%
    09:00 -2°C° 0 mm 4 mps 773 mmHg 80%
    10:00 -2°C° 0 mm 4 mps 773 mmHg 79%
    11:00 -2°C° 0 mm 4 mps 773 mmHg 79%
    12:00 -2°C° 0 mm 4 mps 773 mmHg 78%
    13:00 -2°C° 0 mm 4 mps 774 mmHg 78%
    14:00 -2°C° 0 mm 4 mps 774 mmHg 79%
    15:00 -2°C° 0 mm 4 mps 774 mmHg 80%
    16:00 -2°C° 0 mm 4 mps 774 mmHg 80%
    17:00 -2°C° 0 mm 4 mps 774 mmHg 81%
    18:00 -1°C° 0 mm 3 mps 774 mmHg 81%
    19:00 -1°C° 0 mm 3 mps 774 mmHg 81%
    20:00 -1°C° 0 mm 3 mps 775 mmHg 82%
    21:00 -1°C° 0 mm 3 mps 775 mmHg 83%
    22:00 -2°C° 0 mm 3 mps 775 mmHg 84%
    23:00 -2°C° 0 mm 3 mps 775 mmHg 84%

    Tomorrow, 15 December, Saturday

    Time Temperature Precipitation Wind Pressure Humidity
    00:00 -2°C° 0 mm 3 mps 775 mmHg 83%
    01:00 -2°C° 0 mm 3 mps 775 mmHg 83%
    02:00 -2°C° 0 mm 3 mps 775 mmHg 82%
    03:00 -2°C° 0 mm 3 mps 775 mmHg 81%
    04:00 -2°C° 0 mm 3 mps 775 mmHg 80%
    05:00 -2°C° 0 mm 3 mps 775 mmHg 80%
    06:00 -2°C° 0 mm 3 mps 775 mmHg 79%
    07:00 -2°C° 0 mm 3 mps 775 mmHg 78%
    08:00 -2°C° 0 mm 3 mps 776 mmHg 78%
    09:00 -2°C° 0 mm 3 mps 776 mmHg 77%
    10:00 -1°C° 0 mm 3 mps 776 mmHg 77%
    11:00 -1°C° 0 mm 3 mps 776 mmHg 76%
    12:00 -1°C° 0 mm 3 mps 776 mmHg 76%
    13:00 -1°C° 0 mm 3 mps 776 mmHg 76%
    14:00 -2°C° 0 mm 3 mps 776 mmHg 79%
    15:00 -2°C° 0 mm 3 mps 776 mmHg 82%
    16:00 -4°C° 0 mm 3 mps 776 mmHg 85%
    17:00 -4°C° 0 mm 4 mps 776 mmHg 85%
    18:00 -4°C° 0 mm 4 mps 776 mmHg 85%
    19:00 -4°C° 0 mm 4 mps 775 mmHg 85%
    20:00 -4°C° 0 mm 4 mps 775 mmHg 85%
    21:00 -4°C° 0 mm 4 mps 775 mmHg 85%
    22:00 -4°C° 0 mm 4 mps 775 mmHg 85%
    23:00 -4°C° 0 mm 4 mps 775 mmHg 84%

    Day after tomorrow, 16 December, Sunday

    Time Temperature Precipitation Wind Pressure Humidity
    00:00 -4°C° 0 mm 4 mps 775 mmHg 83%
    01:00 -5°C° 0 mm 5 mps 774 mmHg 82%
    02:00 -5°C° 0 mm 5 mps 774 mmHg 81%
    03:00 -5°C° 0 mm 5 mps 774 mmHg 80%
    04:00 -5°C° 0 mm 5 mps 773 mmHg 79%
    05:00 -5°C° 0 mm 5 mps 773 mmHg 79%
    06:00 -5°C° 0 mm 6 mps 772 mmHg 80%
    07:00 -5°C° 0 mm 6 mps 772 mmHg 81%
    08:00 -5°C° 0 mm 6 mps 772 mmHg 79%
    09:00 -5°C° 0 mm 6 mps 771 mmHg 78%
    10:00 -6°C° 0 mm 7 mps 771 mmHg 76%
    11:00 -6°C° 0 mm 7 mps 771 mmHg 74%
    12:00 -6°C° 0 mm 7 mps 770 mmHg 71%
    13:00 -4°C° 0 mm 7 mps 769 mmHg 69%
    14:00 -6°C° 0.2 mm 7 mps 769 mmHg 73%
    15:00 -6°C° 0.2 mm 7 mps 768 mmHg 77%
    16:00 -6°C° 0.2 mm 8 mps 768 mmHg 80%
    17:00 -6°C° 0.5 mm 8 mps 767 mmHg 82%
    18:00 -6°C° 0.5 mm 8 mps 767 mmHg 84%
    19:00 -6°C° 0.5 mm 8 mps 766 mmHg 86%
    20:00 -6°C° 0.5 mm 8 mps 766 mmHg 86%
    21:00 -6°C° 0.5 mm 8 mps 765 mmHg 85%
    22:00 -6°C° 0.5 mm 7 mps 765 mmHg 85%
    23:00 -6°C° 0.2 mm 7 mps 765 mmHg 84%

    17 December, Monday

    Time Temperature Precipitation Wind Pressure Humidity
    00:00 -6°C° 0.2 mm 7 mps 765 mmHg 82%
    01:00 -6°C° 0.2 mm 7 mps 764 mmHg 81%
    02:00 -6°C° 0 mm 7 mps 764 mmHg 82%
    03:00 -6°C° 0 mm 7 mps 764 mmHg 83%
    04:00 -5°C° 0 mm 6 mps 764 mmHg 84%
    05:00 -5°C° 0 mm 6 mps 764 mmHg 85%
    06:00 -5°C° 0 mm 6 mps 764 mmHg 85%
    07:00 -5°C° 0 mm 6 mps 764 mmHg 86%
    08:00 -4°C° 0 mm 6 mps 764 mmHg 86%
    09:00 -4°C° 0 mm 6 mps 764 mmHg 85%
    10:00 -4°C° 0 mm 6 mps 764 mmHg 85%
    11:00 -4°C° 0 mm 6 mps 764 mmHg 84%
    12:00 -3°C° 0 mm 6 mps 764 mmHg 83%
    13:00 -3°C° 0 mm 6 mps 764 mmHg 83%
    14:00 -3°C° 0 mm 6 mps 765 mmHg 84%
    15:00 -4°C° 0 mm 6 mps 765 mmHg 86%
    16:00 -4°C° 0 mm 6 mps 765 mmHg 88%
    17:00 -4°C° 0 mm 6 mps 765 mmHg 89%
    18:00 -4°C° 0 mm 6 mps 765 mmHg 90%
    19:00 -5°C° 0 mm 6 mps 765 mmHg 91%
    20:00 -4°C° 0.1 mm 5 mps 765 mmHg 91%
    21:00 -4°C° 0.1 mm 5 mps 766 mmHg 91%
    22:00 -4°C° 0.1 mm 5 mps 766 mmHg 91%
    23:00 -2°C° 0.1 mm 4 mps 766 mmHg 92%

    18 December, Tuesday

    Time Temperature Precipitation Wind Pressure Humidity
    00:00 -2°C° 0.1 mm 4 mps 766 mmHg 93%
    01:00 0°C° 0.1 mm 3 mps 766 mmHg 94%
    02:00 0°C° 0 mm 3 mps 767 mmHg 94%
    03:00 0°C° 0 mm 3 mps 767 mmHg 94%
    04:00 +1°C° 0 mm 3 mps 767 mmHg 95%
    05:00 +1°C° 0 mm 3 mps 767 mmHg 94%
    06:00 +1°C° 0 mm 3 mps 768 mmHg 94%
    07:00 +1°C° 0 mm 3 mps 768 mmHg 94%
    08:00 +1°C° 0 mm 3 mps 768 mmHg 94%
    09:00 +1°C° 0 mm 3 mps 768 mmHg 94%
    10:00 +1°C° 0 mm 3 mps 769 mmHg 94%
    11:00 0°C° 0 mm 4 mps 769 mmHg 94%
    12:00 0°C° 0 mm 4 mps 769 mmHg 94%
    13:00 0°C° 0 mm 4 mps 769 mmHg 94%
    14:00 0°C° 0.1 mm 4 mps 769 mmHg 95%
    15:00 -1°C° 0.1 mm 4 mps 769 mmHg 95%
    16:00 -1°C° 0.1 mm 4 mps 769 mmHg 95%
    17:00 -1°C° 0.1 mm 4 mps 769 mmHg 95%
    18:00 -1°C° 0.1 mm 5 mps 769 mmHg 94%
    19:00 -2°C° 0.1 mm 5 mps 769 mmHg 94%
    20:00 -2°C° 0 mm 5 mps 769 mmHg 94%
    21:00 -2°C° 0 mm 5 mps 769 mmHg 94%
    22:00 -3°C° 0 mm 6 mps 769 mmHg 94%
    23:00 -3°C° 0 mm 6 mps 769 mmHg 94%

    19 December, Wednesday

    Time Temperature Precipitation Wind Pressure Humidity
    00:00 -3°C° 0 mm 6 mps 769 mmHg 93%
    01:00 -3°C° 0 mm 6 mps 769 mmHg 93%
    02:00 -3°C° 0 mm 6 mps 768 mmHg 92%
    03:00 -3°C° 0 mm 6 mps 768 mmHg 91%
    04:00 -3°C° 0 mm 6 mps 768 mmHg 90%
    05:00 -4°C° 0 mm 7 mps 768 mmHg 91%
    06:00 -4°C° 0 mm 7 mps 768 mmHg 92%
    07:00 -4°C° 0 mm 7 mps 767 mmHg 92%
    08:00 -4°C° 0 mm 7 mps 767 mmHg 91%
    09:00 -4°C° 0 mm 7 mps 767 mmHg 90%
    10:00 -4°C° 0 mm 7 mps 767 mmHg 88%
    11:00 -4°C° 0 mm 7 mps 767 mmHg 87%
    12:00 -4°C° 0 mm 7 mps 767 mmHg 85%
    13:00 -4°C° 0 mm 7 mps 766 mmHg 84%
    14:00 -4°C° 0 mm 7 mps 766 mmHg 84%
    15:00 -4°C° 0 mm 7 mps 766 mmHg 84%
    16:00 -6°C° 0 mm 8 mps 765 mmHg 84%
    17:00 -6°C° 0 mm 8 mps 765 mmHg 83%
    18:00 -6°C° 0 mm 8 mps 765 mmHg 83%
    19:00 -5°C° 0 mm 8 mps 764 mmHg 83%
    20:00 -5°C° 0 mm 8 mps 764 mmHg 83%
    21:00 -5°C° 0 mm 8 mps 764 mmHg 82%
    22:00 -5°C° 0 mm 8 mps 763 mmHg 82%
    23:00 -5°C° 0 mm 8 mps 763 mmHg 82%
    Show more